Volver al catálogo

LEMUR 2 TOMATOKECHUP

ActivoMeteoSSO
NORAD 60471·PAYLOAD·🇺🇸 United States

Lanzado Aug 16, 2024 desde Vandenberg Space Force Base

Loading…

Próximos Pases (próximas 24 horas)

TLE

ActualizadoSource: Space-Track

Época: Sep 14, 2026, 04:14 UTC

1 60471U 24149D   26257.17696503  .00008339  00000-0  22767-3 0  9997
2 60471  97.3749 339.5309 0000150 237.1657 122.9574 15.37672871115833

Sigue LEMUR 2 TOMATOKECHUP en tiempo real con AllMySat

Download on the App Store